Location: ??????
(56.0120°N, 39.1740°E)
Time: 08:31:14
(UTC+00:00)

ATLAS 3B R/B - Pass Details

Date: 14 April 2026
Orbit: 937 x 1257 km, 63.8° (Epoch: 9 May)

Event Time Altitude Azimuth Distance (km) Brightness Sun altitude
Rises 17:57:47 0° 254° (WSW) 4,147 6.3 -11.8°
Reaches altitude 10° 18:00:36 10° 259° (WSW) 3,207 5.8 -12.1°
Maximum altitude 18:08:19 59° 338° (NNW) 1,434 3.7 -13.0°
Drops below altitude 10° 18:16:06 10° 58° (ENE) 3,225 5.1 -13.8°
Sets 18:18:56 0° 62° (ENE) 4,171 5.6 -14.1°
